Regional Weather Roundup
Issued by NWS

Home | Current Version | Previous Version | Text Only | Print | Product List | Glossary On
Versions: 1 2 3 4 5 6 7 8 9 10 11 12 13 14 15 16 17 18 19 20 21 22 23 24 25 26 27 28 29 30 31 32 33 34 35 36 37 38 39 40 41 42 43 44 45 46 47 48 49 50
000
ASUS43 KTOP 012359
RWRKS

WEATHER ROUNDUP FOR KANSAS
NATIONAL WEATHER SERVICE GOODLAND KS
700 PM CDT TUE SEP 01 2015

NOTE:  "FAIR" INDICATES FEW OR NO CLOUDS BELOW 12,000 FEET WITH NO
SIGNIFICANT WEATHER AND/OR OBSTRUCTIONS TO VISIBILITY.

KSZ001>006-013>018-027>032-041>047-020100-
NORTHWEST KANSAS

CITY           SKY/WX    TMP DP  RH WIND       PRES   REMARKS
GOODLAND       MOSUNNY   91  49  23 CALM      29.95S
6HR MIN TEMP:  83; 6HR MAX TEMP:  93;

HAYS           MOSUNNY   97  57  26 S14       29.87S HX  95
HILL CITY      SUNNY     95  55  26 S10       29.88R
6HR MIN TEMP:  88; 6HR MAX TEMP: 100;

RUSSELL        SUNNY     95  58  28 S17G26    29.87R
6HR MIN TEMP:  93; 6HR MAX TEMP:  99;

$$

KSZ061>065-074>080-084>089-020100-
SOUTHWEST KANSAS

CITY           SKY/WX    TMP DP  RH WIND       PRES   REMARKS
DODGE CITY     SUNNY     92  53  26 S16       29.93S
6HR MIN TEMP:  87; 6HR MAX TEMP:  96;

ELKHART          N/A     85  58  40 S9          N/A
GARDEN CITY    MOSUNNY   89  56  32 S15       29.92R
6HR MIN TEMP:  83; 6HR MAX TEMP:  95;

GREAT BEND     MOSUNNY   93  57  29 S16G22    29.88S
LIBERAL        MOSUNNY   90  54  29 S18G24    29.96S
$$

KSZ066>073-081>083-090>101-020100-
SOUTHEAST KANSAS

CITY           SKY/WX    TMP DP  RH WIND       PRES   REMARKS
CHANUTE        CLEAR     84  68  58 S12       30.01R
6HR MIN TEMP:  84; 6HR MAX TEMP:  88;

COFFEYVILLE    CLEAR     83  71  67 S7        29.99S
6HR MIN TEMP:  83; 6HR MAX TEMP:  88;

HUTCHINSON     MOSUNNY   91  61  36 S12       29.92S
6HR MIN TEMP:  91; 6HR MAX TEMP:  95;

NEWTON         SUNNY     88  63  42 SE13G20   29.97S
PARSONS        CLEAR     83  69  62 S6        30.01S
6HR MIN TEMP:  83; 6HR MAX TEMP:  88;

WICHITA INTL   MOSUNNY   88  67  49 SE15      29.93S
6HR MIN TEMP:  88; 6HR MAX TEMP:  94;

WICHITA JABRA  SUNNY     86  66  51 SE16G25   29.95R
6HR MIN TEMP:  86; 6HR MAX TEMP:  90;

WINFIELD       SUNNY     87  67  51 SE16      29.97S
6HR MIN TEMP:  87; 6HR MAX TEMP:  93;

$$

KSZ007>012-019>026-033>040-048>060-102>105-020100-
NORTHEAST KANSAS

CITY           SKY/WX    TMP DP  RH WIND       PRES   REMARKS
CONCORDIA      PTSUNNY   86  64  47 S14       29.89S
6HR MIN TEMP:  86; 6HR MAX TEMP:  93;

EMPORIA        CLEAR     84  66  54 S16       29.97S
6HR MIN TEMP:  84; 6HR MAX TEMP:  89;

LAWRENCE       CLEAR     85  65  51 S13       29.97S
6HR MIN TEMP:  85; 6HR MAX TEMP:  91;

MANHATTAN      MOSUNNY   88  63  43 S8        29.92R
6HR MIN TEMP:  88; 6HR MAX TEMP:  94;

OLATHE IND     CLEAR     83  68  60 S7        30.01R
6HR MIN TEMP:  83; 6HR MAX TEMP:  88;

OLATHE EXE     CLEAR     82  69  64 S9        30.00R
6HR MIN TEMP:  82; 6HR MAX TEMP:  86;

SALINA         SUNNY     91  62  37 S17G26    29.89S
6HR MIN TEMP:  91; 6HR MAX TEMP:  95;

TOPEKA BILLARD CLEAR     85  67  54 SE13      29.96S
6HR MIN TEMP:  85; 6HR MAX TEMP:  91;

TOPEKA FORBES  CLEAR     85  68  56 SE14      29.97S
6HR MIN TEMP:  85; 6HR MAX TEMP:  92;

$$


USA.gov is the U.S. government's official web portal to all federal, state and local government web resources and services.